Flag for Andorra Weather past 2 weeks in Andorra La Vella, Andorra

Now
63 °F

Passing clouds.


Feels Like: 63 °F
Forecast: 56 / 75 °F
Wind: 12 mph from West

Location: Carcassonne Airport

Current Time: Jul 30, 2015 at 6:42:41 AM

Latest Report: Jul 30, 2015 at 5:30 AM


Visibility: N/A

Pressure: 29.98 "Hg (26.55 "Hg at 1031m altitude)

Humidity: 83%

Dew point: 57 °F

Location of Andorra La VellaLocation

Historic Weather in Andorra La Vella — Graph

°F

Andorra La Vella temperature yesterday

Maximum temperature yesterday: 84 °F (at 2:00 PM)
Minimum temperature yesterday: 63 °F (at 2:30 AM)
Average temperature yesterday: 73 °F

Past Weeks' High & Low Weather Summary

 TemperatureHumidityPressure
High100 °F (Jul 21, 4:30 PM)94% (Jul 17, 5:30 AM)30.12 "Hg (Jul 17, 5:30 AM)
Low57 °F (Jul 26, 6:30 AM)15% (Jul 21, 5:30 PM)29.74 "Hg (Jul 24, 3:00 PM)
Average76 °F61%29.99 "Hg
* Reported Jul 15 5:00 AM — Jul 30 5:00 AM, Andorra La Vella, Weather by CustomWeather, © 2015

Note: Actual official high and low records may vary slightly from our data, if they occured in-between our weather recording intervals... More about our weather records

Advertising

Andorra La Vella weather history for previous 24 hours

 ConditionsComfort  
Time TempWeatherWind HumidityBarometerVisibility
5:00 AM
Thu, Jul 30
63 °FClear.13 mph83%29.98 "Hg10 mi
4:30 AM63 °FClear.14 mph83%29.98 "Hg10 mi
4:00 AM64 °FPassing clouds.14 mph78%29.98 "HgN/A
3:30 AM64 °FMostly cloudy.14 mph83%29.98 "HgN/A
3:00 AM64 °FPassing clouds.13 mph78%29.98 "HgN/A
2:30 AM64 °FOvercast.13 mph83%29.98 "HgN/A
2:00 AM66 °FOvercast.14 mph73%30.01 "HgN/A
1:30 AM66 °FOvercast.14 mph73%30.01 "HgN/A
1:00 AM66 °FOvercast.14 mph78%30.01 "HgN/A
12:30 AM66 °FOvercast.12 mph78%30.01 "HgN/A
12:00 AM66 °FOvercast.10 mph78%30.01 "HgN/A
11:30 PM
Wed, Jul 29
68 °FMostly cloudy.10 mph78%30.01 "HgN/A
11:00 PM68 °FOvercast.9 mph78%30.01 "HgN/A
10:30 PM70 °FPassing clouds.10 mph73%30.01 "HgN/A
10:00 PM70 °FMostly cloudy.10 mph73%29.98 "HgN/A
9:30 PM70 °FLight rain. Overcast.13 mph73%29.98 "HgN/A
9:00 PM72 °FOvercast.14 mph69%29.95 "HgN/A
8:30 PM73 °FOvercast.17 mph65%29.95 "HgN/A
8:00 PM75 °FMore clouds than sun.14 mph61%29.95 "HgN/A
7:30 PM77 °FCloudy.14 mph57%29.95 "HgN/A
7:00 PM77 °FMostly cloudy.14 mph57%29.92 "HgN/A
6:30 PM77 °FMostly cloudy.13 mph57%29.92 "HgN/A
6:00 PM77 °FOvercast.16 mph61%29.92 "HgN/A
5:30 PM79 °FCloudy.17 mph58%29.92 "HgN/A
5:00 PM79 °FMostly cloudy.15 mph58%29.92 "HgN/A
4:30 PM81 °FMore clouds than sun.16 mph54%29.92 "HgN/A
4:00 PM82 °FOvercast.16 mph51%29.92 "HgN/A
3:30 PM82 °FMore clouds than sun.16 mph48%29.89 "HgN/A
3:00 PM82 °FPartly sunny.16 mph45%29.89 "HgN/A
2:30 PM84 °FPassing clouds.16 mph45%29.89 "HgN/A
2:00 PM84 °FPassing clouds.16 mph45%29.89 "HgN/A
1:30 PM82 °FPassing clouds.15 mph45%29.89 "HgN/A
1:00 PM82 °FSunny.14 mph45%29.92 "Hg10 mi
12:30 PM81 °FPassing clouds.13 mph48%29.92 "HgN/A
12:00 PM81 °FPassing clouds.13 mph48%29.92 "HgN/A
11:30 AM79 °FPassing clouds.10 mph54%29.92 "HgN/A
11:00 AM79 °FPassing clouds.12 mph51%29.92 "HgN/A
10:30 AM77 °FSunny.12 mph54%29.92 "Hg10 mi
9:30 AM73 °FSunny.9 mph61%29.92 "Hg10 mi
9:00 AM72 °FPassing clouds.9 mph65%29.92 "HgN/A
8:30 AM70 °FPassing clouds.7 mph69%29.92 "HgN/A
8:00 AM68 °FPassing clouds.6 mph73%29.92 "HgN/A
7:30 AM66 °FPassing clouds.6 mph78%29.92 "HgN/A
7:00 AM64 °FPassing clouds.6 mph83%29.92 "HgN/A
6:30 AM63 °FClear.5 mph88%29.92 "Hg10 mi
Weather by CustomWeather, © 2015

See weather overviewHow to use our weather pages